Weather History for Marianna, FL

Change the Weather History Date:

Sunday, February 3, 2013

  Actual Average Record
Temperature  
Mean Temperature 54 °F 52 °F  
Max Temperature 67 °F 64 °F 73 °F (2003)
Min Temperature 41 °F 41 °F 28 °F (2000)
Degree Days  
Heating Degree Days 11    
Month to date heating degree days 45  
Since 1 July heating degree days 771  
Cooling Degree Days 0    
Month to date cooling degree days 0  
Year to date cooling degree days 53  
Growing Degree Days 4 (Base 50)    
Moisture  
Dew Point 38 °F    
Average Humidity 60    
Maximum Humidity 100    
Minimum Humidity 20    
Precipitation  
Precipitation T in 0.16 in 0.54 in (2011)
Month to date precipitation T 0.51  
Year to date precipitation 0.96 5.55  
Sea Level Pressure  
Sea Level Pressure 30.17 in    
Wind  
Wind Speed 4 mph (WNW)    
Max Wind Speed 20 mph    
Max Gust Speed 24 mph    
Visibility 8 miles    
Events Fog    
T = Trace of Precipitation, MM = Missing Value Source: NWS Daily Summary

Daily Weather History Graph

Daily Weather History Graph

Search for Another Location

Airport:

Trip Planner

Search our weather history database for the weather conditions in past years. The results will help you decide how hot, cold, wet, or windy it might be!

Date:

Astronomy

Feb. 03, 2013 Rise Set
Actual Time 6:30 AM CST 5:18 PM CST
Civil Twilight 6:05 AM CST 5:43 PM CST
Nautical Twilight 5:36 AM CST 6:12 PM CST
Astronomical Twilight 5:08 AM CST 6:41 PM CST
Moon No Moon Rise 10:57 AM CST (2/3)
Length of Visible Light 11h 38m
Length of Day
10h 47m
Waning Gibbous, 48% of the Moon is Illuminated
Feb 3
Waning Gibbous
Feb 10
New
Feb 17
First Quarter
Feb 25
Full
Mar 4
Last Quarter

Hourly Weather History & Observations

Time (CST) Temp. Dew Point Humidity Pressure Visibility Wind Dir Wind Speed Gust Speed Precip Events Conditions
12:53 AM 46.9 °F 43.0 °F 86% 30.17 in 10.0 mi NNW 3.5 mph - N/A   Overcast
1:53 AM 48.0 °F 45.0 °F 89% 30.17 in 10.0 mi Calm Calm - 0.00 in   Overcast
2:49 AM 48.2 °F 46.4 °F 93% 30.18 in 10.0 mi WNW 3.5 mph - 0.00 in   Overcast
2:53 AM 48.9 °F 46.0 °F 90% 30.17 in 10.0 mi West 3.5 mph - 0.00 in   Overcast
3:21 AM 48.2 °F 46.4 °F 93% 30.17 in 10.0 mi Calm Calm - N/A   Mostly Cloudy
3:53 AM 46.9 °F 45.0 °F 93% 30.17 in 10.0 mi Calm Calm - N/A   Mostly Cloudy
4:53 AM 46.0 °F 45.0 °F 96% 30.19 in 10.0 mi Calm Calm - N/A   Clear
5:53 AM 46.0 °F 43.0 °F 89% 30.20 in 10.0 mi Calm Calm - N/A   Clear
6:41 AM 42.8 °F 41.0 °F 93% 30.21 in 0.5 mi Calm Calm - N/A Fog Fog
6:53 AM 43.0 °F 42.1 °F 97% 30.22 in 1.8 mi Calm Calm - N/A   Clear
7:00 AM 42.8 °F 42.8 °F 100% 30.21 in 6.0 mi Calm Calm - N/A   Clear
7:07 AM 41.0 °F 39.2 °F 93% 30.22 in 1.5 mi Calm Calm - N/A   Clear
7:16 AM 42.8 °F 41.0 °F 93% 30.22 in 0.8 mi Calm Calm - N/A   Clear
7:26 AM 44.6 °F 42.8 °F 93% 30.22 in 1.5 mi Calm Calm - N/A   Clear
7:31 AM 44.6 °F 44.6 °F 100% 30.23 in 3.0 mi Calm Calm - N/A   Clear
7:53 AM 46.9 °F 44.1 °F 90% 30.23 in 10.0 mi Calm Calm - N/A   Clear
8:53 AM 52.0 °F 41.0 °F 66% 30.23 in 10.0 mi Calm Calm - N/A   Clear
9:53 AM 57.0 °F 35.1 °F 44% 30.23 in 10.0 mi WNW 3.5 mph - N/A   Clear
10:53 AM 60.1 °F 32.0 °F 35% 30.21 in 10.0 mi NW 10.4 mph - N/A   Clear
11:53 AM 63.0 °F 32.0 °F 31% 30.17 in 10.0 mi NW 8.1 mph 18.4 mph N/A   Clear
12:53 PM 64.9 °F 30.0 °F 27% 30.13 in 10.0 mi WNW 11.5 mph 18.4 mph N/A   Clear
1:53 PM 66.9 °F 28.0 °F 23% 30.11 in 10.0 mi NW 11.5 mph - N/A   Clear
2:53 PM 66.0 °F 26.1 °F 22% 30.09 in 10.0 mi WNW 10.4 mph 19.6 mph N/A   Clear
3:53 PM 66.0 °F 25.0 °F 21% 30.09 in 10.0 mi WNW 13.8 mph 21.9 mph N/A   Clear
4:53 PM 63.0 °F 26.1 °F 25% 30.09 in 10.0 mi WNW 9.2 mph - N/A   Clear
5:53 PM 55.9 °F 30.0 °F 37% 30.10 in 10.0 mi Calm Calm - N/A   Clear
6:53 PM 51.1 °F 32.0 °F 48% 30.11 in 10.0 mi Calm Calm - N/A   Clear
7:53 PM 48.9 °F 32.0 °F 52% 30.12 in 10.0 mi SW 3.5 mph - N/A   Clear
8:53 PM 46.9 °F 34.0 °F 61% 30.12 in 10.0 mi Calm Calm - N/A   Clear
9:53 PM 44.1 °F 34.0 °F 68% 30.12 in 10.0 mi Calm Calm - N/A   Clear
10:53 PM 43.0 °F 35.1 °F 74% 30.12 in 10.0 mi Calm Calm - N/A   Clear
11:53 PM 44.1 °F 36.0 °F 73% 30.12 in 10.0 mi Calm Calm - N/A   Clear